Voltar ao catálogo

SDA_1682

AtivoCiênciaPO
NORAD 65992·PAYLOAD·🇺🇸 United States

Lançado Oct 15, 2025 de Vandenberg Space Force Base

Loading…

Próximas Passagens (próximas 24 horas)

TLE

AtualizadoSource: Space-Track

Época: Sep 14, 2026, 15:36 UTC

1 65992U 25230U   26257.65030737  .00000143  00000-0  13076-3 0  9994
2 65992  81.3020 130.5621 0001213  54.5903 305.5363 13.78099607 46081

Acompanhe SDA_1682 em tempo real com AllMySat

Download on the App Store